Location: Croissy-Beaubourg
(48.8283°N, 2.6696°E)
Time: 23:16:56
(UTC+00:00)

Cosmos 2082 - Pass Details

Date: 19 August 2022
Orbit: 832 x 856 km, 71.0° (Epoch: 28 September)

Event Time Altitude Azimuth Distance (km) Brightness Sun altitude
Rises 03:05:38 0° 331° (NNW) 3,410 7.0 -15.2°
Reaches altitude 10° 03:08:04 10° 331° (NNW) 2,475 6.3 -14.9°
Maximum altitude 03:13:46 84° 245° (WSW) 859 3.7 -14.1°
Drops below altitude 10° 03:19:28 10° 157° (SSE) 2,474 6.0 -13.4°
Sets 03:21:54 0° 157° (SSE) 3,409 6.7 -13.1°
